Location: Newark
(56.0692°N, 115.8617°E)
Time: 07:39:06
(UTC+00:00)

Explorer 7 - Visible Passes

Search period start: 26 May 2020 00:00
Search period end: 05 June 2020 00:00
Orbit: 485 x 679 km, 50.3° (Epoch: 25 May)

Date Brightness Start Highest point End Pass type
(mag) Time Alt. Az. Time Alt. Az. Time Alt. Az.
26 May 8.2 17:24:00 16° SSW 17:26:22 24° SSE 17:29:55 10° ESE visible
27 May 9.0 15:51:36 13° SE 15:51:36 13° SE 15:53:20 10° ESE visible
27 May 7.9 17:27:51 14° SW 17:30:59 29° SSE 17:34:46 10° E visible
28 May 8.6 15:55:18 17° SSE 15:55:52 17° SSE 15:58:46 10° ESE visible
28 May 7.7 17:31:32 10° SW 17:35:38 34° SSE 17:39:34 10° ESE visible
29 May 8.3 15:58:44 18° S 16:00:25 22° SSE 16:03:51 10° ESE visible
29 May 7.6 17:36:03 10° WSW 17:40:18 37° S 17:44:19 10° ESE visible
30 May 9.1 14:25:26 10° SE 14:25:28 10° SE 14:26:15 10° SE visible
30 May 8.0 16:01:36 12° SSW 16:05:00 27° SSE 16:08:47 10° E visible
30 May 7.5 17:40:41 10° WSW 17:44:59 40° S 17:49:02 10° ESE visible
31 May 8.8 14:27:22 10° S 14:29:57 15° SE 14:32:27 10° ESE visible
31 May 7.8 16:05:28 10° SW 16:09:38 32° SSE 16:13:37 10° E visible
31 May 7.4 17:45:21 10° WSW 17:49:40 40° S 17:53:44 10° ESE visible
01 Jun 8.4 14:31:07 10° SSW 14:34:27 19° SSE 14:37:42 10° ESE visible
01 Jun 7.6 16:09:57 10° SW 16:14:16 36° SSE 16:18:23 10° ESE visible
01 Jun 7.5 17:50:04 10° WSW 17:54:20 38° S 17:58:22 10° ESE visible
02 Jun 8.2 14:35:12 10° SSW 14:39:01 24° SSE 14:42:43 10° E visible
02 Jun 7.5 16:14:32 10° WSW 16:18:57 39° S 16:23:07 10° ESE visible
02 Jun 7.6 17:54:48 10° W 17:59:00 35° SSW 18:02:57 10° SE visible
03 Jun 7.9 14:39:29 10° SW 14:43:37 29° SSE 14:47:35 10° E visible
03 Jun 7.4 16:19:11 10° WSW 16:23:38 41° S 16:27:50 10° ESE visible
03 Jun 7.8 17:59:35 10° W 18:03:37 31° SSW 18:07:27 10° SE visible
04 Jun 7.8 14:43:54 10° SW 14:48:14 34° SSE 14:52:24 10° E visible
04 Jun 7.5 16:23:52 10° WSW 16:28:18 41° S 16:32:30 10° ESE visible
04 Jun 8.0 18:04:25 10° W 18:08:13 26° SSW 18:11:50 10° SSE visible
